Powrót do katalogu

WEILI KONGJIAN 05-04

AktywnyNawigacjaLEO
NORAD 69585·PAYLOAD·🇨🇳 China
Ta nazwa satelity nie została jeszcze potwierdzona przez oficjalne źródła.

Wystrzelony Jun 17, 2026 z Jiuquan Satellite Launch Center

Loading…

Następne Przeloty (najbliższe 24 godziny)

TLE

ŚwieżeSource: Space-Track

Epoka: Sep 14, 2026, 10:42 UTC

1 69585U 26138D   26257.44628376 -.00000047  00000-0  53875-4 0  9999
2 69585  55.1409 311.3854 0012803  97.6961 262.5468 14.15931773 12665

Śledź WEILI KONGJIAN 05-04 w czasie rzeczywistym z AllMySat

Download on the App Store